Theta_e
315 315 316 316 316 316 318 319 319 318 317 319 317 316 315 319 330 332 333 335 335 338 338 338 339 339 338 335 335 337 338 339 339 338 336 335 333 329 328 328 328 328 326 322
316 316 315 316 317 318 319 320 318 317 318 317 317 317 324 333 332 332 333 332 337 340 339 337 341 342 342 340 339 339 339 338 337 337 335 334 330 328 328 329 329 324 321 317
317 319 315 317 319 319 318 319 319 319 318 317 317 318 324 340 341 337 340 338 338 340 338 336 337 338 342 341 341 339 338 338 337 336 335 333 330 329 329 328 324 320 317 316
316 316 317 317 318 317 319 317 318 319 320 319 317 319 317 333 342 343 344 340 338 338 334 335 336 336 338 339 341 341 340 338 337 336 335 335 332 330 328 325 320 316 315 316
319 318 317 318 317 317 317 319 319 320 318 318 319 318 317 336 344 340 340 338 336 335 333 335 335 334 334 339 340 340 340 339 338 338 336 334 333 328 320 316 315 314 313 313
317 318 317 318 318 318 319 320 317 315 315 318 318 318 317 340 341 340 341 337 336 333 330 333 333 333 333 335 337 338 338 336 335 335 334 332 327 320 317 314 312 310 309 308
315 316 318 319 319 318 318 316 319 320 319 320 317 318 318 319 324 330 336 336 338 335 332 332 332 331 330 331 331 333 333 327 327 327 324 322 321 318 315 311 309 309 307 306
315 315 314 316 317 318 316 316 319 322 320 320 318 321 322 332 338 337 335 336 337 335 332 332 330 328 328 328 328 327 328 324 323 323 321 318 315 313 311 309 309 307 306 306
315 316 317 318 318 318 319 318 316 318 318 320 318 319 330 340 344 339 338 338 337 336 334 332 328 326 327 326 324 326 323 320 319 318 315 313 311 310 309 309 308 307 306 305
315 317 317 319 319 318 319 317 320 315 322 322 318 321 325 331 340 342 339 337 336 334 334 330 327 326 326 324 325 322 319 317 314 313 312 311 311 310 309 309 308 308 307 305
313 314 317 317 316 316 315 317 317 315 318 320 321 319 318 328 330 341 338 336 334 333 332 329 326 325 325 324 322 319 317 315 314 313 312 311 311 310 309 310 309 309 307 306
315 312 315 315 314 315 314 315 316 318 320 319 319 320 317 319 327 337 338 336 332 330 329 327 324 324 323 323 321 319 316 316 315 313 312 312 311 309 310 311 310 309 308 307
314 313 317 318 316 316 318 316 316 315 316 321 322 322 323 330 333 336 338 336 332 329 327 324 322 322 321 321 320 318 317 315 314 314 312 312 310 311 311 309 309 309 309 308
316 313 315 319 319 318 321 321 317 316 317 319 322 321 320 333 333 334 336 335 331 328 328 325 323 322 321 320 319 317 316 316 315 313 312 311 311 311 310 309 309 309 309 308
314 317 318 318 319 320 321 323 320 317 318 320 321 319 319 322 331 332 333 331 330 329 328 327 325 322 321 321 319 318 317 316 313 312 312 310 310 311 310 309 309 308 307 308
312 317 316 317 316 317 322 322 322 319 319 318 320 319 317 318 328 330 331 331 331 330 329 327 325 323 321 318 319 318 316 314 312 312 310 310 310 309 309 310 308 307 307 306
315 315 314 315 318 318 316 320 323 320 318 320 321 321 328 332 330 331 330 330 331 330 328 327 325 323 320 318 320 318 316 312 312 310 309 309 310 310 309 307 307 307 306 306
315 313 314 315 319 318 314 321 322 322 320 318 320 323 328 328 329 329 328 330 330 329 328 326 325 322 318 319 318 317 313 312 311 308 309 310 308 307 307 307 307 306 305 305
315 314 316 319 318 316 317 315 324 323 325 320 320 323 330 331 331 332 328 328 329 328 326 326 323 319 317 318 317 314 312 311 308 309 310 308 307 307 307 307 306 306 306 306
316 315 318 316 322 321 322 319 327 323 327 323 324 327 332 331 335 330 328 328 328 327 325 320 319 317 317 316 314 313 311 308 309 309 308 308 307 307 307 307 307 304 304 304
314 315 320 318 316 316 316 318 321 326 327 326 328 327 331 333 329 326 326 325 324 322 318 318 316 315 316 315 314 312 308 309 309 307 307 307 308 308 308 307 306 304 304 305
317 318 319 316 317 318 317 326 317 315 320 326 327 329 330 326 325 325 322 319 317 316 315 315 312 311 312 313 313 307 309 308 307 307 308 308 307 306 305 303 303 303 303 303
318 317 319 319 318 315 319 323 321 323 323 327 327 327 327 324 322 321 318 316 315 314 313 313 311 309 311 311 309 308 308 307 308 309 308 307 307 306 304 302 302 303 303 302
314 315 318 317 320 320 321 321 321 320 324 326 325 326 326 324 320 318 317 316 314 313 312 309 309 307 307 309 308 308 308 308 309 308 307 307 305 304 303 301 302 303 303 302
312 310 312 315 314 319 322 322 323 324 326 327 326 326 324 321 319 318 317 315 314 311 310 310 308 307 307 308 308 308 308 308 308 307 307 306 306 303 302 302 303 304 303 302
309 311 314 315 316 316 317 322 324 327 328 328 327 324 322 321 320 320 319 317 315 311 308 307 307 307 307 309 308 308 308 308 308 307 306 307 306 304 302 303 304 304 303 303
Wind_Speed
2 4 5 7 6 4 3 3 4 5 4 3 7 7 11 10 3 10 12 15 13 5 6 8 9 8 9 11 18 22 24 21 22 21 19 16 18 17 14 11 5 1 4 3
3 4 8 4 4 4 4 3 6 8 2 6 4 7 7 3 4 5 11 7 7 6 6 8 10 11 11 17 20 21 20 19 19 21 19 17 20 14 11 5 3 2 3 4
6 5 5 6 3 2 3 3 4 6 7 4 5 6 6 2 3 1 5 5 7 10 10 6 10 10 11 17 21 23 22 21 19 18 17 17 14 11 7 5 4 3 4 4
5 5 6 3 4 6 4 5 7 5 2 2 2 4 5 6 8 4 3 5 8 9 9 8 11 11 11 16 20 20 19 18 15 13 12 14 15 11 8 8 5 0 1 2
7 3 3 4 8 7 8 5 4 3 4 2 3 4 7 5 6 9 7 7 7 8 12 13 12 12 12 17 19 19 17 15 13 11 12 14 13 11 13 9 6 4 4 4
7 2 5 7 4 8 2 3 6 5 3 1 5 5 6 4 7 7 3 7 6 6 10 11 14 16 16 17 18 17 16 15 13 13 13 13 14 14 10 7 4 4 4 5
4 4 4 4 2 0 3 6 3 3 3 5 0 2 8 5 7 8 10 9 10 10 9 11 11 13 16 15 15 15 15 15 14 13 13 12 11 9 7 5 4 6 6 7
5 6 7 4 8 7 6 8 5 5 4 4 2 5 6 4 9 14 3 11 12 13 10 12 13 14 18 17 15 14 14 14 12 10 10 10 10 7 5 5 5 4 6 7
4 6 4 3 3 8 2 4 4 5 2 2 4 7 7 4 6 2 7 12 13 14 12 14 15 17 20 20 18 15 13 14 13 12 11 10 9 6 5 5 4 7 7 11
6 4 5 2 3 1 4 5 1 3 2 4 4 5 5 7 8 6 6 9 11 11 15 13 13 17 18 16 17 15 15 15 14 12 10 9 8 5 4 3 4 6 9 8
4 5 7 4 5 8 1 1 4 4 5 5 3 6 8 10 8 13 11 9 10 11 10 10 12 17 18 16 18 18 17 17 15 12 10 8 5 3 1 3 4 5 6 6
2 4 5 9 4 5 7 9 6 4 5 3 4 6 5 9 7 9 11 10 7 7 8 9 12 18 19 20 21 21 18 17 14 11 8 4 1 1 2 4 4 6 6 7
2 1 4 8 5 4 1 4 5 4 3 6 4 6 2 4 5 8 12 12 10 9 9 8 11 13 17 22 23 20 19 16 12 10 6 3 1 3 5 5 5 7 11 12
0 2 6 6 5 2 4 5 5 5 4 4 7 6 8 7 9 9 11 12 10 12 13 10 9 12 15 20 23 20 17 13 12 9 6 4 5 6 6 6 9 12 13 16
5 3 5 5 5 4 7 10 8 8 8 9 10 9 10 10 12 16 11 6 11 14 14 14 13 12 20 23 23 18 16 13 12 9 7 8 7 9 9 10 11 12 13 12
5 4 3 4 6 7 9 12 10 12 6 8 5 8 8 6 3 7 13 15 16 17 16 15 11 16 16 17 23 21 18 17 12 9 10 9 10 11 11 10 10 10 10 12
2 1 4 4 4 7 13 7 11 5 6 10 10 12 6 5 10 14 12 17 21 17 16 17 16 18 17 24 27 24 21 16 12 11 10 9 9 10 7 6 9 10 12 14
5 3 1 4 3 8 8 2 4 8 10 10 6 5 9 7 5 5 9 15 14 16 16 14 15 18 23 28 26 23 20 15 12 11 10 7 6 4 6 7 10 12 12 13
16 5 2 4 5 11 23 7 4 3 8 7 11 6 4 3 3 5 8 12 14 15 16 21 24 24 26 29 27 24 18 14 11 11 9 7 5 5 7 9 11 11 14 16
9 6 5 4 4 8 3 2 3 4 17 8 7 8 7 6 3 6 12 13 11 18 23 24 27 26 27 26 26 22 18 14 12 9 7 5 4 6 7 10 12 13 14 18
5 3 12 6 6 10 7 5 6 4 8 5 6 8 10 7 6 3 12 6 18 23 25 29 28 27 31 31 28 21 17 15 10 7 4 3 5 5 8 10 12 14 16 15
2 4 4 3 5 14 5 3 15 8 8 3 6 6 13 5 4 7 10 14 13 15 24 26 25 26 30 27 21 19 16 13 9 6 3 2 4 5 8 10 11 12 12 15
3 4 2 6 8 5 4 4 12 4 6 7 5 5 8 9 5 10 12 14 15 22 23 27 31 31 29 24 21 19 15 11 8 5 2 1 3 6 8 8 10 12 14 12
4 2 2 5 8 9 12 20 15 16 17 13 8 6 10 11 14 15 14 14 13 22 24 27 30 26 25 21 20 16 14 9 6 3 1 3 6 7 9 7 10 13 13 9
5 6 4 11 16 14 15 12 11 16 12 8 5 7 11 17 14 17 16 14 16 24 28 30 27 23 28 23 20 16 11 8 5 2 2 4 8 8 8 10 12 12 10 7
7 7 5 8 3 7 15 21 15 13 18 11 11 10 13 17 17 15 12 15 17 19 20 23 24 28 27 22 19 15 9 6 4 1 2 5 7 8 10 11 10 10 8 9
Wind_Direction
224 97 196 210 188 171 152 191 241 253 222 307 271 286 303 324 161 161 186 209 213 166 124 128 136 152 170 184 196 191 194 193 201 197 184 170 162 161 161 159 160 294 302 306
30 244 221 190 156 180 202 250 276 290 244 186 322 303 282 357 310 215 191 173 159 126 93 79 100 111 131 144 153 160 175 173 176 176 167 167 164 167 170 171 238 252 281 308
164 235 153 158 190 235 258 206 241 233 325 300 327 311 340 344 340 146 86 113 158 170 146 127 113 106 120 143 144 155 158 158 164 169 164 156 161 162 171 196 205 237 276 306
216 258 208 171 222 147 288 209 233 257 35 247 16 272 308 327 308 257 172 157 160 146 121 129 139 126 128 127 137 145 151 154 158 159 169 184 180 166 188 181 176 140 272 300
234 191 172 175 222 170 230 220 219 226 197 75 293 88 269 5 312 280 192 167 181 155 144 146 153 137 134 131 136 140 145 145 149 160 168 170 168 161 148 136 130 86 68 63
213 224 172 202 183 188 229 334 31 47 82 43 247 141 282 208 217 280 172 155 155 134 132 133 142 141 135 133 134 134 137 134 146 156 160 158 145 140 133 132 129 99 52 22
328 248 250 196 199 345 118 66 322 343 8 215 106 62 236 257 239 242 269 156 150 154 142 146 146 145 139 133 127 129 137 127 129 134 135 131 124 125 119 109 70 35 21 17
177 315 185 197 181 194 188 156 157 227 201 248 94 237 247 233 284 268 67 141 145 155 152 159 167 158 153 148 145 148 131 127 130 132 132 130 122 106 99 77 56 38 33 20
152 276 290 207 161 140 178 163 183 123 20 83 247 295 315 317 319 0 136 144 156 164 164 169 169 164 163 163 153 139 141 146 143 142 141 133 113 102 96 82 45 24 16 13
204 284 214 220 85 22 164 164 67 17 201 245 287 290 237 264 250 240 212 190 170 162 165 165 154 160 167 158 135 150 165 157 152 150 144 126 106 101 97 42 19 6 7 3
147 154 256 119 182 196 18 249 60 126 147 185 224 258 221 231 224 208 210 203 186 169 160 152 159 160 157 152 158 168 169 166 157 157 148 128 116 128 55 1 338 338 352 333
1 160 256 221 243 195 171 198 155 138 258 209 173 267 272 253 265 179 196 198 182 164 153 151 145 149 158 165 177 178 177 175 166 156 157 138 102 309 281 299 293 298 304 304
302 317 347 346 10 12 160 225 177 133 99 199 184 261 254 263 208 210 194 186 176 163 147 137 139 157 163 180 184 184 181 176 167 173 175 167 215 240 269 282 277 285 281 290
35 159 174 202 210 180 297 283 229 165 137 213 216 255 270 237 212 207 209 194 172 163 163 158 156 162 172 184 191 188 182 181 181 188 189 211 228 242 262 269 276 284 290 293
53 249 200 262 260 267 244 267 261 205 213 204 253 210 251 222 213 213 208 142 162 170 172 172 171 161 171 184 192 191 190 188 197 199 218 227 240 242 257 271 285 291 298 301
357 287 315 266 268 249 262 260 262 239 227 251 239 257 236 263 194 179 191 174 186 188 178 173 159 174 183 176 189 194 194 198 199 217 226 237 240 249 264 276 286 299 301 302
304 271 0 263 303 339 286 209 218 243 209 211 229 234 167 232 208 215 202 190 197 185 175 170 176 175 179 184 195 195 198 194 204 215 224 223 241 263 261 268 289 297 304 306
198 166 211 256 332 241 264 207 238 224 251 230 263 189 196 221 236 238 202 199 188 178 170 167 165 174 179 191 190 192 188 193 202 213 210 230 226 237 261 283 298 306 309 311
204 164 236 207 209 282 283 286 258 196 274 231 226 224 200 127 64 296 209 187 187 173 162 165 171 169 178 183 182 177 177 188 201 205 221 208 233 266 283 296 311 311 304 304
186 253 216 150 194 239 355 104 21 238 272 180 182 190 165 151 151 246 185 170 147 149 150 147 156 162 169 174 171 170 176 181 194 195 184 223 253 284 296 302 308 314 309 307
157 167 221 228 248 276 211 297 6 259 279 226 189 181 157 197 211 299 131 101 134 139 133 141 150 156 167 168 166 167 177 180 183 189 187 223 279 302 307 306 305 311 313 317
196 191 195 155 199 261 210 93 196 236 260 278 287 220 193 126 73 105 106 114 117 118 124 134 133 139 155 160 161 166 175 164 169 177 190 259 296 314 315 310 314 323 322 322
254 202 235 196 225 252 350 321 298 314 285 293 251 220 160 131 127 126 126 126 131 133 135 139 138 141 152 156 163 167 160 156 162 184 214 311 342 321 322 328 322 322 325 330
272 18 239 14 279 303 323 311 299 287 276 277 265 179 161 145 144 135 132 135 133 137 135 137 136 134 144 158 160 156 148 150 169 188 159 337 347 334 329 316 314 322 329 335
219 347 234 259 285 294 283 270 281 303 284 253 197 182 159 145 151 146 139 143 140 138 139 141 137 144 146 153 148 147 144 159 161 159 4 3 342 336 334 326 327 329 341 337
200 219 209 254 296 277 288 289 292 304 299 246 172 153 154 150 145 140 132 122 127 121 129 126 138 143 147 148 145 150 153 166 167 118 12 350 343 332 333 332 334 336 341 330